{"data":{"norad_id":68002,"epoch":"2026-09-19T09:19:22.226016Z","epoch_age_seconds":155558,"freshness":"FRESH","line1":"1 68002U 26039S   26262.38845169  .00014372  00000+0  53054-3 0  9994","line2":"2 68002  42.9992  35.3224 0001471 274.7185  85.3499 15.27593773 31325","mean_motion":15.27593773,"eccentricity":0.0001471,"inclination_deg":42.9992,"raan_deg":35.3224,"arg_perigee_deg":274.7185,"mean_anomaly_deg":85.3499,"bstar":0.00053054,"rev_number":3132,"period_min":94.265898791406,"perigee_km":481.99858062453,"apogee_km":484.01712944088,"semimajor_km":6861.1448550327,"source":"CELESTRAK","updated_at":"2026-09-20T09:00:43.738021Z"}}